When you browse on this site, cookies collect data to enhance your experience and personalize the content and advertising you see.
Visit our Privacy Policy to learn more. By continuing to use the site, you agree to this use of cookies and data.
  • En España
  • Lista de países
  • Para 7 días
  • Temperatura del agua
  • El tiempo en el mapa
  • Informadores
  • user-avatar
    Iniciar sesión

    Tiempo cada hora Praia

    Hoy, 21 Septiembre, Sábado

    Tiempo Temperatura Precipitaciones Viento Presión Humedad
    00:00 +34°C° 0 mm 5 mps 683 mmHg 21%
    01:00 +34°C° 0 mm 5 mps 683 mmHg 21%
    02:00 +33°C° 0 mm 5 mps 682 mmHg 22%
    03:00 +33°C° 0 mm 5 mps 682 mmHg 23%
    04:00 +32°C° 0 mm 5 mps 682 mmHg 23%
    05:00 +30°C° 0 mm 6 mps 682 mmHg 24%
    06:00 +32°C° 0 mm 5 mps 682 mmHg 24%
    07:00 +32°C° 0 mm 5 mps 683 mmHg 25%
    08:00 +32°C° 0 mm 4 mps 684 mmHg 22%
    09:00 +34°C° 0 mm 5 mps 684 mmHg 20%
    10:00 +35°C° 0 mm 6 mps 684 mmHg 18%
    11:00 +38°C° 0 mm 7 mps 684 mmHg 16%
    12:00 +38°C° 0 mm 7 mps 684 mmHg 16%
    13:00 +39°C° 0 mm 7 mps 683 mmHg 15%
    14:00 +39°C° 0 mm 7 mps 683 mmHg 15%
    15:00 +39°C° 0 mm 6 mps 682 mmHg 15%
    16:00 +39°C° 0 mm 5 mps 682 mmHg 16%
    17:00 +38°C° 0 mm 4 mps 682 mmHg 16%
    18:00 +37°C° 0 mm 4 mps 682 mmHg 18%
    19:00 +36°C° 0 mm 4 mps 682 mmHg 19%
    20:00 +35°C° 0 mm 4 mps 682 mmHg 21%
    21:00 +35°C° 0 mm 4 mps 682 mmHg 22%
    22:00 +34°C° 0 mm 3 mps 683 mmHg 24%
    23:00 +33°C° 0 mm 3 mps 683 mmHg 26%

    Mañana, 22 Septiembre, Domingo

    Tiempo Temperatura Precipitaciones Viento Presión Humedad
    00:00 +33°C° 0 mm 3 mps 682 mmHg 30%
    01:00 +31°C° 0 mm 2 mps 682 mmHg 33%
    02:00 +30°C° 0 mm 2 mps 682 mmHg 37%
    03:00 +30°C° 0 mm 2 mps 682 mmHg 35%
    04:00 +30°C° 0 mm 3 mps 682 mmHg 33%
    05:00 +29°C° 0 mm 3 mps 682 mmHg 31%
    06:00 +30°C° 0 mm 4 mps 682 mmHg 29%
    07:00 +30°C° 0 mm 5 mps 683 mmHg 26%
    08:00 +32°C° 0 mm 6 mps 683 mmHg 24%
    09:00 +33°C° 0 mm 7 mps 684 mmHg 21%
    10:00 +35°C° 0 mm 7 mps 684 mmHg 19%
    11:00 +38°C° 0 mm 8 mps 684 mmHg 16%
    12:00 +38°C° 0 mm 7 mps 684 mmHg 15%
    13:00 +39°C° 0 mm 7 mps 683 mmHg 14%
    14:00 +40°C° 0 mm 6 mps 682 mmHg 13%
    15:00 +40°C° 0 mm 6 mps 682 mmHg 13%
    16:00 +40°C° 0 mm 6 mps 682 mmHg 13%
    17:00 +40°C° 0 mm 5 mps 681 mmHg 13%
    18:00 +39°C° 0 mm 5 mps 681 mmHg 14%
    19:00 +37°C° 0 mm 5 mps 682 mmHg 15%
    20:00 +36°C° 0 mm 5 mps 682 mmHg 16%
    21:00 +36°C° 0 mm 6 mps 682 mmHg 17%
    22:00 +35°C° 0 mm 6 mps 682 mmHg 17%
    23:00 +34°C° 0 mm 6 mps 683 mmHg 17%

    Pasado mañana, 23 Septiembre, Lunes

    Tiempo Temperatura Precipitaciones Viento Presión Humedad
    00:00 +33°C° 0 mm 6 mps 683 mmHg 18%
    01:00 +33°C° 0 mm 5 mps 682 mmHg 19%
    02:00 +32°C° 0 mm 5 mps 682 mmHg 20%
    03:00 +30°C° 0 mm 4 mps 682 mmHg 22%
    04:00 +29°C° 0 mm 3 mps 682 mmHg 25%
    05:00 +29°C° 0 mm 2 mps 682 mmHg 27%
    06:00 +29°C° 0 mm 3 mps 683 mmHg 26%
    07:00 +30°C° 0 mm 5 mps 683 mmHg 25%
    08:00 +30°C° 0 mm 6 mps 684 mmHg 24%
    09:00 +33°C° 0 mm 6 mps 684 mmHg 22%
    10:00 +35°C° 0 mm 7 mps 684 mmHg 20%
    11:00 +38°C° 0 mm 7 mps 684 mmHg 18%
    12:00 +39°C° 0 mm 7 mps 684 mmHg 16%
    13:00 +39°C° 0 mm 6 mps 683 mmHg 15%
    14:00 +40°C° 0 mm 6 mps 683 mmHg 14%
    15:00 +40°C° 0 mm 6 mps 682 mmHg 14%
    16:00 +40°C° 0 mm 6 mps 682 mmHg 13%
    17:00 +40°C° 0 mm 6 mps 682 mmHg 13%
    18:00 +39°C° 0 mm 6 mps 682 mmHg 14%
    19:00 +38°C° 0 mm 6 mps 682 mmHg 15%
    20:00 +36°C° 0 mm 5 mps 683 mmHg 16%
    21:00 +35°C° 0 mm 6 mps 683 mmHg 24%
    22:00 +33°C° 0 mm 6 mps 683 mmHg 31%
    23:00 +32°C° 0 mm 6 mps 683 mmHg 38%

    24 Septiembre, Martes

    Tiempo Temperatura Precipitaciones Viento Presión Humedad
    00:00 +30°C° 0 mm 5 mps 682 mmHg 42%
    01:00 +29°C° 0 mm 4 mps 682 mmHg 46%
    02:00 +29°C° 0 mm 2 mps 682 mmHg 50%
    03:00 +28°C° 0 mm 2 mps 682 mmHg 50%
    04:00 +28°C° 0 mm 2 mps 682 mmHg 49%
    05:00 +28°C° 0 mm 2 mps 682 mmHg 48%
    06:00 +28°C° 0 mm 2 mps 683 mmHg 45%
    07:00 +29°C° 0 mm 2 mps 683 mmHg 42%
    08:00 +29°C° 0 mm 3 mps 683 mmHg 38%
    09:00 +31°C° 0 mm 2 mps 683 mmHg 34%
    10:00 +34°C° 0 mm 2 mps 684 mmHg 29%
    11:00 +34°C° 0 mm 1 mps 684 mmHg 25%
    12:00 +36°C° 0 mm 2 mps 683 mmHg 24%
    13:00 +37°C° 0 mm 3 mps 683 mmHg 22%
    14:00 +38°C° 0 mm 4 mps 682 mmHg 21%
    15:00 +37°C° 0.1 mm 5 mps 682 mmHg 24%
    16:00 +35°C° 0.1 mm 7 mps 681 mmHg 27%
    17:00 +34°C° 0.1 mm 8 mps 681 mmHg 31%
    18:00 +34°C° 0 mm 6 mps 681 mmHg 29%
    19:00 +34°C° 0 mm 4 mps 682 mmHg 28%
    20:00 +35°C° 0 mm 2 mps 682 mmHg 26%
    21:00 +34°C° 0 mm 1 mps 682 mmHg 27%
    22:00 +33°C° 0 mm 1 mps 683 mmHg 27%
    23:00 +33°C° 0 mm 1 mps 683 mmHg 28%

    25 Septiembre, Miércoles

    Tiempo Temperatura Precipitaciones Viento Presión Humedad
    00:00 +32°C° 0 mm 2 mps 683 mmHg 29%
    01:00 +32°C° 0 mm 2 mps 682 mmHg 30%
    02:00 +31°C° 0 mm 3 mps 682 mmHg 31%
    03:00 +31°C° 0 mm 3 mps 682 mmHg 35%
    04:00 +30°C° 0 mm 2 mps 682 mmHg 38%
    05:00 +29°C° 0 mm 1 mps 682 mmHg 42%
    06:00 +29°C° 0 mm 1 mps 683 mmHg 43%
    07:00 +29°C° 0 mm 1 mps 683 mmHg 43%
    08:00 +29°C° 0 mm 1 mps 683 mmHg 44%
    09:00 +31°C° 0 mm 2 mps 684 mmHg 37%
    10:00 +34°C° 0 mm 3 mps 684 mmHg 29%
    11:00 +36°C° 0 mm 4 mps 684 mmHg 21%
    12:00 +37°C° 0 mm 4 mps 684 mmHg 19%
    13:00 +38°C° 0 mm 4 mps 683 mmHg 18%
    14:00 +40°C° 0 mm 4 mps 683 mmHg 16%
    15:00 +38°C° 0 mm 4 mps 682 mmHg 18%
    16:00 +37°C° 0 mm 5 mps 682 mmHg 19%
    17:00 +37°C° 0 mm 5 mps 681 mmHg 21%
    18:00 +36°C° 0 mm 4 mps 682 mmHg 20%
    19:00 +36°C° 0 mm 4 mps 682 mmHg 20%
    20:00 +36°C° 0 mm 3 mps 682 mmHg 19%
    21:00 +35°C° 0 mm 3 mps 683 mmHg 21%
    22:00 +35°C° 0 mm 3 mps 683 mmHg 22%
    23:00 +34°C° 0 mm 3 mps 683 mmHg 23%

    26 Septiembre, Jueves

    Tiempo Temperatura Precipitaciones Viento Presión Humedad
    00:00 +33°C° 0 mm 3 mps 683 mmHg 26%
    01:00 +31°C° 0 mm 3 mps 683 mmHg 29%
    02:00 +31°C° 0 mm 2 mps 682 mmHg 31%
    03:00 +30°C° 0 mm 2 mps 682 mmHg 31%
    04:00 +30°C° 0 mm 2 mps 682 mmHg 31%
    05:00 +29°C° 0 mm 2 mps 682 mmHg 30%
    06:00 +30°C° 0 mm 3 mps 683 mmHg 27%
    07:00 +30°C° 0 mm 3 mps 683 mmHg 25%
    08:00 +32°C° 0 mm 4 mps 684 mmHg 22%
    09:00 +33°C° 0 mm 5 mps 684 mmHg 20%
    10:00 +35°C° 0 mm 5 mps 684 mmHg 17%
    11:00 +38°C° 0 mm 6 mps 685 mmHg 15%
    12:00 +39°C° 0 mm 6 mps 684 mmHg 14%
    13:00 +40°C° 0 mm 6 mps 684 mmHg 13%
    14:00 +40°C° 0 mm 6 mps 683 mmHg 12%
    15:00 +40°C° 0 mm 6 mps 683 mmHg 12%
    16:00 +40°C° 0 mm 6 mps 682 mmHg 12%
    17:00 +40°C° 0 mm 6 mps 682 mmHg 12%
    18:00 +39°C° 0 mm 6 mps 682 mmHg 12%
    19:00 +38°C° 0 mm 6 mps 682 mmHg 13%
    20:00 +36°C° 0 mm 6 mps 682 mmHg 14%
    21:00 +35°C° 0 mm 5 mps 682 mmHg 15%
    22:00 +35°C° 0 mm 5 mps 683 mmHg 15%
    23:00 +34°C° 0 mm 5 mps 683 mmHg 16%
    Mostrar más